Hourly Data Report for October 17, 2015

All times are specified in Local Standard Time (LST). Add 1 hour to adjust for Daylight Saving Time where and when it is observed.

OTTAWA INTL A
ONTARIO

45°19'00.000" N
75°40'00.000" W
114.90 m
6106001
71628
YOW

Download Data

Hourly Data (October 2015)
Hourly Data Report for October 17, 2015
Temp Definition
°C
Dew Point Temp Definition
°C
Rel Hum Definition
%
Wind Dir Definition
10's deg

Wind Spd Definition
km/h
Visibility Definition
km
Stn Press Definition
kPa
Hmdx Definition


Wind Chill Definition


Weather Definition


TIME
00:00 Legend Double Dagger 4.4 3.1 91 34 16 16.1 99.94     Rain
01:00 Legend Double Dagger 4.1 3.2 94 32 23 8.1 99.99     Rain,Fog
02:00 Legend Double Dagger 3.4 1.9 90 31 35 12.9 100.04     Rain
03:00 Legend Double Dagger 3.0 1.5 90 31 19 24.1 100.08     Rain
04:00 Legend Double Dagger 2.9 1.1 88 29 18 24.1 100.16     Cloudy
05:00 Legend Double Dagger 2.6 0.5 86 30 24 24.1 100.24     LegendNANA
06:00 Legend Double Dagger 1.7 0.1 89 30 19 24.1 100.30     LegendNANA
07:00 Legend Double Dagger 1.9 -0.2 86 30 24 24.1 100.38     Mostly Cloudy
08:00 Legend Double Dagger 2.7 -0.1 82 30 26 24.1 100.47     LegendNANA
09:00 Legend Double Dagger 3.3 0.0 79 31 25 24.1 100.53     LegendNANA
10:00 Legend Double Dagger 3.3 -1.5 71 33 26 24.1 100.58     Mostly Cloudy
11:00 Legend Double Dagger 3.7 -1.7 68 31 28 24.1 100.61     LegendNANA
12:00 Legend Double Dagger 4.0 -3.1 60 32 25 24.1 100.63     LegendNANA
13:00 Legend Double Dagger 5.8 -4.7 47 32 32 24.1 100.63     Mostly Cloudy
14:00 Legend Double Dagger 5.7 -5.0 46 30 22 24.1 100.64     LegendNANA
15:00 Legend Double Dagger 4.1 -7.7 42 31 21 24.1 100.67     LegendNANA
16:00 Legend Double Dagger 3.2 -6.5 49 30 18 24.1 100.70     Mainly Clear
17:00 Legend Double Dagger 3.1 -7.2 47 32 18 24.1 100.76     LegendNANA
18:00 Legend Double Dagger 0.8 -6.3 59 30 12 24.1 100.82     LegendNANA
19:00 Legend Double Dagger 1.2 -5.1 63 32 15 24.1 100.88     Mainly Clear
20:00 Legend Double Dagger 1.3 -4.4 66 27 12 24.1 100.93     LegendNANA
21:00 Legend Double Dagger 0.6 -4.8 67 32 19 24.1 100.96     LegendNANA
22:00 Legend Double Dagger -0.7 -4.8 74 33 10 24.1 100.97   -4 Mainly Clear
23:00 Legend Double Dagger -1.6 -4.8 79 31 9 24.1 100.98   -5 LegendNANA

Notes on Data Quality.

Legend

  • E = Estimated
  • M = Missing
  • NA = Not Available
  • ‡ = Partner data that is not subject to review by the National Climate Archives
Date modified: